{"data":{"norad_id":58334,"epoch":"2026-05-25T05:18:20.995776Z","epoch_age_seconds":66140,"freshness":"FRESH","line1":"1 58334U 23174CG  26145.22107634  .00035035  00000+0  50676-3 0  9995","line2":"2 58334  97.3958 237.3359 0005797 188.7842 171.3312 15.55824163142256","mean_motion":15.55824163,"eccentricity":0.0005797,"inclination_deg":97.3958,"raan_deg":237.3359,"arg_perigee_deg":188.7842,"mean_anomaly_deg":171.3312,"bstar":0.00050676,"rev_number":14225,"period_min":92.555446447325,"perigee_km":395.82880118123,"apogee_km":403.68709258265,"semimajor_km":6777.8949468819,"source":"CELESTRAK","updated_at":"2026-05-25T13:38:00.679881Z"}}